User: anonymous   Login
Location: Paderno d�Adda
(45.6667°N, 9.4333°E)
Time: 03:22:35
(UTC+00:00)
Language:

ERS-1 Rocket - Orbit

View from above orbital plane
View from above orbital plane
View from above satellite
View from above satellite

Ground track
Ground track

The orbit data is extracted from the following two-line orbital elements,

1 21610U 91050F   20329.45800384  .00000039  00000-0  25862-4 0  9992
2 21610  98.4495  36.9653 0004160 129.2102 241.4050 14.40922756541029
Epoch (UTC): 24 November 2020 10:59:31
Eccentricity: 0.0004160
inclination: 98.4495°
perigee height: 752 km
apogee height: 758 km
right ascension of ascending node: 36.9653°
argument of perigee: 129.2102°
revolutions per day: 14.40922756
mean anomaly at epoch: 241.4050°
orbit number at epoch: 54102

The dashed part of the orbit path shows where the satellite is in the earth's shadow,  

DLR